Weather reports worldwide

Advertisment
Wittenberg, Germany (10474): temperature & dewpoint: 29.06.2020 16:00:00 - 05.07.2020 16:00:00 (CEST)Wittenberg, Germany (10474): temperature 5cm & temperature -5cm: 29.06.2020 16:00:00 - 05.07.2020 16:00:00 (CEST)Wittenberg, Germany (10474): temperature -20cm & temperature -100cm: 29.06.2020 16:00:00 - 05.07.2020 16:00:00 (CEST)Wittenberg, Germany (10474): wind speed & gusts: 29.06.2020 16:00:00 - 05.07.2020 16:00:00 (CEST)Wittenberg, Germany (10474): wind direction: 29.06.2020 16:00:00 - 05.07.2020 16:00:00 (CEST)Wittenberg, Germany (10474): reduced air pressure: 29.06.2020 16:00:00 - 05.07.2020 16:00:00 (CEST)Wittenberg, Germany (10474): visibility: 29.06.2020 16:00:00 - 05.07.2020 16:00:00 (CEST)Wittenberg, Germany (10474): sunshine duration: 29.06.2020 16:00:00 - 05.07.2020 16:00:00 (CEST)Wittenberg, Germany (10474): precipitation: 29.06.2020 16:00:00 - 05.07.2020 16:00:00 (CEST)
Date & Time tt [°C] td [°C] tt 5cm [°C] tt -5cm [°C] tt -20cm [°C] tt -100cm [°C] ff [km/h] ff [kn] fx [km/h] fx [kn] dd ppp [hPa] vv [km] sd [min] rr [mm]
05.07.2020 16:00:00 26,4 14,5 28,5 30,9 25,0 19,8 24 13 48 26 SW 1009,6 64 31 0,0
05.07.2020 15:00:00 25,8 15,3 28,2 31,4 24,3 19,8 22 12 50 27 SW 1010,1 47 37 0,0
05.07.2020 14:00:00 25,3 15,0 27,9 28,2 23,9 19,8 26 14 49 26 WSW 1010,6 75 5 0,0
05.07.2020 13:00:00 24,0 15,0 25,4 26,8 23,6 19,8 20 11 44 24 SW 1010,7 60 4 0,0
05.07.2020 12:00:00 23,6 14,6 24,3 26,8 23,3 19,8 24 13 49 26 WSW 1010,8 63 0 0,0
05.07.2020 11:00:00 23,6 14,9 24,6 26,9 22,8 19,8 22 12 42 23 SW 1011,1 64 16 0,0
05.07.2020 10:00:00 23,5 14,9 26,0 26,9 22,2 19,8 23 12 44 24 SW 1011,1 74 33 0,0
05.07.2020 09:00:00 22,9 14,6 25,0 24,8 21,8 19,8 23 12 40 21 SW 1011,2 59 28 0,0
05.07.2020 08:00:00 21,1 14,1 21,7 21,6 21,8 19,8 17 9 31 17 SW 1011,5 75 0 0,0
05.07.2020 07:00:00 20,4 13,8 20,7 20,4 22,0 19,8 16 9 30 16 SSW 1011,7 72 3 0,0
05.07.2020 06:00:00 19,4 13,6 17,3 20,3 22,2 19,8 13 7 27 15 SW 1012,0 33 0 0,0
05.07.2020 05:00:00 20,5 12,7 19,3 20,8 22,5 19,8 13 7 26 14 SW 1011,8 47 0 0,0
05.07.2020 04:00:00 20,7 12,1 20,3 21,1 22,7 19,7 11 6 22 12 SW 1011,9 66 0 0,0
05.07.2020 03:00:00 20,6 12,1 19,9 21,3 22,9 19,7 7 4 16 9 SW 1012,4 75 0 0,0
05.07.2020 02:00:00 20,9 11,8 20,3 21,5 23,2 19,7 8 4 16 9 SW 1012,8 70 0 0,0
05.07.2020 01:00:00 20,8 12,2 20,1 21,8 23,6 19,7 6 4 16 9 SW 1012,8 75 0 0,0
05.07.2020 00:00:00 20,9 12,5 20,4 22,3 23,9 19,7 7 4 14 8 SW 1013,3 57 0 0,0
04.07.2020 23:00:00 20,7 12,5 20,4 22,7 24,4 19,7 7 4 14 8 WSW 1013,4 57 0 0,0
04.07.2020 22:00:00 20,5 12,8 20,1 23,2 24,9 19,7 6 3 20 11 SW 1013,4 70 0 0,0
04.07.2020 21:00:00 20,6 13,2 20,3 24,1 25,5 19,7 16 8 37 20 SSW 1013,6 75 0 0,0
04.07.2020 20:00:00 22,9 10,8 23,0 26,3 25,8 19,7 21 11 43 23 WSW 1013,4 64 0 0,0
04.07.2020 19:00:00 25,1 9,2 25,7 28,7 26,0 19,7 19 11 41 22 WSW 1012,9 39 10 0,0
04.07.2020 18:00:00 25,0 9,3 25,9 29,9 26,0 19,7 18 10 40 21 SW 1013,0 69 9 0,0
04.07.2020 17:00:00 25,0 8,7 26,8 31,1 25,8 19,7 16 9 39 21 SW 1013,8 62 16 0,0
04.07.2020 16:00:00 25,0 9,1 28,1 31,9 25,3 19,8 17 9 43 23 SW 1014,0 65 18 0,0
04.07.2020 15:00:00 24,7 9,4 27,8 33,3 24,5 19,8 21 11 44 24 SW 1014,4 58 50 0,0
04.07.2020 14:00:00 25,4 9,5 30,6 31,8 23,5 19,8 20 11 42 23 W 1014,7 75 55 0,0
04.07.2020 13:00:00 23,1 9,2 26,7 28,9 22,9 19,8 19 10 35 19 WSW 1015,5 66 14 0,0
04.07.2020 12:00:00 22,8 9,9 26,5 28,1 22,1 19,8 17 9 40 22 SW 1015,9 75 32 0,0
04.07.2020 11:00:00 22,2 9,0 25,2 27,3 21,3 19,8 17 9 34 18 SW 1016,2 44 46 0,0
04.07.2020 10:00:00 21,5 9,7 24,4 25,4 20,5 19,8 15 8 32 17 WSW 1016,3 57 60 0,0
04.07.2020 09:00:00 20,5 11,4 23,4 22,8 20,0 19,8 12 7 27 15 SW 1016,4 60 60 0,0
04.07.2020 08:00:00 18,0 12,0 20,2 19,8 19,7 19,8 7 4 15 8 SSW 1016,5 51 60 0,0
04.07.2020 07:00:00 15,6 11,2 16,6 17,4 19,9 19,8 3 2 9 5 SW 1016,6 39 60 0,0
04.07.2020 06:00:00 14,5 11,1 13,6 15,8 20,2 19,8 5 3 8 4 WSW 1016,5 39 5 0,0
04.07.2020 05:00:00 13,1 11,0 10,4 15,9 20,7 19,7 3 2 6 4 SSW 1016,5 43 0 0,0
04.07.2020 04:00:00 12,5 10,8 10,5 16,5 21,2 19,7 4 2 5 3 SSE 1016,9 30 0 0,0
04.07.2020 03:00:00 13,0 10,8 11,5 17,1 21,7 19,7 0 0 3 2 N 1017,1 27 0 0,0
04.07.2020 02:00:00 13,5 11,0 11,8 17,8 22,3 19,7 3 2 4 2 WNW 1017,4 52 0 0,0
04.07.2020 01:00:00 14,5 10,9 12,6 18,6 22,9 19,7 3 1 6 4 WNW 1017,4 58 0 0,0
04.07.2020 00:00:00 16,4 11,4 12,9 19,7 23,6 19,7 3 2 6 4 S 1017,3 51 0 0,0
03.07.2020 23:00:00 17,5 11,2 14,8 20,9 24,2 19,7 6 3 10 6 NW 1017,1 63 0 0,0
03.07.2020 22:00:00 18,2 11,7 15,4 22,5 24,9 19,7 7 4 10 6 NNW 1016,8 63 0 0,0
03.07.2020 21:00:00 20,9 10,6 19,6 24,7 25,4 19,7 6 3 17 9 NW 1016,0 69 47 0,0
03.07.2020 20:00:00 22,7 9,8 23,8 27,1 25,6 19,7 9 5 24 13 WNW 1015,8 73 51 0,0
03.07.2020 19:00:00 23,3 9,5 25,4 29,0 25,6 19,7 12 6 26 14 W 1015,5 57 49 0,0
03.07.2020 18:00:00 22,9 9,2 25,9 29,8 25,3 19,7 14 8 27 14 W 1015,8 56 50 0,0
03.07.2020 17:00:00 23,2 9,6 27,5 30,4 24,8 19,7 11 6 31 17 W 1015,7 56 41 0,0
03.07.2020 16:00:00 22,4 8,7 24,8 30,3 24,2 19,8 15 8 29 15 WSW 1016,0 75 26 0,0
03.07.2020 15:00:00 22,3 9,5 25,1 30,3 23,5 19,8 13 7 29 16 WSW 1016,0 70 44 0,0
03.07.2020 14:00:00 21,0 10,7 25,2 27,4 22,9 19,8 12 7 31 17 W 1016,3 64 19 0,0
03.07.2020 13:00:00 19,8 10,7 22,7 25,3 22,5 19,8 11 6 25 13 WNW 1016,5 44 6 0,0
03.07.2020 12:00:00 20,5 9,6 24,2 27,0 22,0 19,8 11 6 29 16 WSW 1016,2 58 19 0,0
03.07.2020 11:00:00 19,0 10,2 22,1 25,0 21,5 19,8 12 6 30 16 W 1016,0 52 29 0,0
03.07.2020 10:00:00 19,1 10,3 23,0 24,6 20,8 19,8 11 6 28 15 WNW 1015,9 75 54 0,0
03.07.2020 09:00:00 18,0 11,2 21,5 22,3 20,4 19,8 14 7 24 13 W 1015,6 63 59 0,0
03.07.2020 08:00:00 17,0 12,2 19,7 19,7 20,3 19,8 10 5 25 14 W 1015,1 59 59 0,0
03.07.2020 07:00:00 15,3 12,6 16,2 17,7 20,5 19,8 9 5 17 9 W 1014,7 34 34 0,0
03.07.2020 06:00:00 14,7 12,8 14,0 17,6 20,9 19,8 8 4 13 7 W 1014,3 36 0 0,0
03.07.2020 05:00:00 15,5 12,7 14,6 18,1 21,2 19,7 9 5 16 9 W 1013,9 47 0 0,0
03.07.2020 04:00:00 15,9 12,9 15,7 18,5 21,6 19,7 7 4 15 8 W 1013,2 59 0 0,0
03.07.2020 03:00:00 16,4 13,0 15,9 18,9 21,9 19,7 8 5 19 11 W 1012,9 59 0 0,0
03.07.2020 02:00:00 16,6 13,4 16,3 19,3 22,4 19,7 7 4 14 7 WNW 1012,6 57 0 0,0
03.07.2020 01:00:00 16,8 12,9 15,2 19,5 22,9 19,7 6 4 16 9 W 1012,0 56 0 0,0
03.07.2020 00:00:00 18,1 13,1 17,2 20,8 23,4 19,7 7 4 13 7 WNW 1011,8 65 0 0,0
02.07.2020 23:00:00 19,0 13,5 18,5 21,7 23,9 19,7 4 2 11 6 W 1011,6 65 0 0,0
02.07.2020 22:00:00 19,7 11,5 18,6 22,3 24,5 19,7 2 1 21 11 WNW 1010,7 75 0 0,0
02.07.2020 21:00:00 20,6 12,4 18,2 24,0 25,0 19,7 11 6 23 12 NW 1010,6 31 0 0,0
02.07.2020 20:00:00 22,3 12,0 22,5 26,0 25,4 19,8 9 5 21 11 NNW 1009,8 75 0 0,0
02.07.2020 19:00:00 23,9 11,0 25,4 28,7 25,3 19,8 10 5 26 14 NNW 1009,3 75 49 0,0
02.07.2020 18:00:00 25,0 11,1 29,2 29,4 25,0 19,8 11 6 31 17 NW 1009,3 59 57 0,0
02.07.2020 17:00:00 24,0 12,6 28,4 28,9 24,6 19,8 14 7 25 14 NNW 1009,5 41 33 0,0
02.07.2020 16:00:00 24,0 12,4 27,1 30,2 24,0 19,8 10 5 23 13 WNW 1009,5 60 42 0,0
02.07.2020 15:00:00 23,4 13,2 28,4 28,5 23,2 19,8 13 7 27 15 NNW 1009,6 75 42 0,0
02.07.2020 14:00:00 23,6 13,5 27,2 28,1 22,4 19,8 9 5 19 10 SW 1009,9 43 37 0,0
02.07.2020 13:00:00 21,6 13,8 24,5 26,6 21,6 19,8 8 4 16 9 NW 1010,2 66 23 0,0
02.07.2020 12:00:00 20,7 14,4 22,8 24,4 21,3 19,8 10 5 18 10 NW 1010,4 54 11 0,0
02.07.2020 11:00:00 19,4 15,1 19,9 21,7 21,3 19,8 8 4 19 11 SSW 1010,3 54 1 0,0
02.07.2020 10:00:00 19,4 15,5 19,6 22,8 20,9 19,8 10 5 18 10 SSW 1010,4 46 22 0,0
02.07.2020 09:00:00 19,2 15,2 20,1 22,7 20,4 19,8 6 3 15 8 SW 1010,0 38 35 0,0
02.07.2020 08:00:00 17,3 15,9 17,2 19,7 20,2 19,8 5 3 13 7 WSW 1009,8 16 0 0,0
02.07.2020 07:00:00 16,6 15,7 16,6 18,5 20,3 19,8 6 3 12 7 SSW 1009,7 17 0 0,3
02.07.2020 06:00:00 16,3 15,8 16,2 17,8 20,5 19,8 5 3 11 6 SSW 1009,4 16 0 0,7
02.07.2020 05:00:00 16,2 15,6 16,0 17,5 20,8 19,8 6 3 13 7 WSW 1009,2 27 0 0,0
02.07.2020 04:00:00 16,3 15,4 15,6 17,7 21,2 19,8 8 4 13 7 SW 1008,9 29 0 0,0
02.07.2020 03:00:00 16,1 15,3 15,4 17,8 21,7 19,8 5 3 11 6 W 1008,3 43 0 0,0
02.07.2020 02:00:00 16,6 15,7 15,8 18,4 22,3 19,8 5 3 18 10 WSW 1008,4 36 0 0,0
02.07.2020 01:00:00 17,2 16,5 16,9 19,5 22,8 19,8 5 3 13 7 SW 1008,1 31 0 0,0
02.07.2020 00:00:00 17,7 16,4 17,3 20,2 23,3 19,8 6 3 12 7 W 1008,2 53 0 0,0
01.07.2020 23:00:00 17,6 16,8 17,4 20,4 24,0 19,8 6 3 20 11 NW 1007,2 47 0 0,0
01.07.2020 22:00:00 18,0 17,0 17,7 21,1 24,9 19,8 13 7 36 19 NNW 1007,0 67 0 2,4
01.07.2020 21:00:00 20,6 16,4 19,0 24,8 25,5 19,8 21 11 45 24 NW 1006,5 15 0 0,4
01.07.2020 20:00:00 23,6 15,8 23,8 27,4 25,7 19,8 5 3 14 8 E 1005,2 75 13 0,0
01.07.2020 19:00:00 24,6 16,3 27,2 29,3 25,6 19,8 9 5 16 9 N 1005,6 61 30 0,0
01.07.2020 18:00:00 24,0 15,8 26,2 30,7 25,3 19,8 11 6 19 11 NNW 1006,2 60 28 0,0
01.07.2020 17:00:00 25,5 15,3 28,6 31,6 24,6 19,8 7 4 19 11 W 1006,5 54 37 0,0
01.07.2020 16:00:00 25,0 15,1 29,0 31,2 23,7 19,8 8 4 20 11 WSW 1006,9 65 22 0,0
01.07.2020 15:00:00 22,6 15,2 27,8 29,4 23,1 19,8 8 4 23 12 WNW 1007,4 57 14 0,0
01.07.2020 14:00:00 20,3 15,0 22,9 24,5 23,0 19,8 14 7 28 15 NNW 1008,1 65 0 0,0
01.07.2020 13:00:00 22,1 14,6 22,7 25,2 22,8 19,8 5 3 15 8 W 1007,6 55 1 0,0
01.07.2020 12:00:00 22,2 13,9 24,9 25,6 22,4 19,8 6 4 23 12 SW 1007,6 50 0 0,0
01.07.2020 11:00:00 20,8 13,1 21,4 24,5 22,2 19,8 12 6 28 15 SW 1008,2 72 0 0,0
01.07.2020 10:00:00 20,5 12,9 22,1 24,9 21,7 19,8 16 9 29 16 SW 1008,1 55 2 0,0
01.07.2020 09:00:00 21,0 13,0 22,4 24,9 21,2 19,8 13 7 27 14 SW 1007,9 55 46 0,0
01.07.2020 08:00:00 19,9 12,5 22,2 21,9 20,9 19,8 13 7 27 14 SSW 1008,0 42 33 0,0
01.07.2020 07:00:00 18,2 11,5 19,2 19,4 21,0 19,8 13 7 23 13 SSW 1007,9 70 23 0,0
01.07.2020 06:00:00 18,0 11,1 17,7 18,6 21,2 19,8 12 6 28 15 SW 1007,9 63 0 0,0
01.07.2020 05:00:00 17,7 10,8 16,9 18,4 21,5 19,8 9 5 22 12 SW 1007,8 67 0 0,0
01.07.2020 04:00:00 18,4 10,7 17,9 19,2 21,8 19,8 13 7 23 13 SW 1007,6 58 0 0,0
01.07.2020 03:00:00 18,6 10,5 18,4 19,4 22,1 19,8 11 6 22 12 SW 1007,8 57 0 0,0
01.07.2020 02:00:00 18,2 10,2 17,6 19,2 22,5 19,8 10 6 21 12 SW 1008,2 65 0 0,0
01.07.2020 01:00:00 18,8 9,9 18,1 20,0 23,0 19,8 9 5 18 10 SW 1008,4 62 0 0,0
01.07.2020 00:00:00 18,2 9,3 17,3 20,1 23,6 19,8 9 5 18 10 WSW 1008,7 70 0 0,0
30.06.2020 23:00:00 19,6 8,9 18,9 21,5 24,1 19,8 11 6 25 13 WSW 1008,8 74 0 0,0
30.06.2020 22:00:00 20,3 8,4 20,0 22,5 24,7 19,8 15 8 31 17 SW 1008,6 70 0 0,0
30.06.2020 21:00:00 20,9 8,3 20,5 24,0 25,2 19,8 17 9 39 21 WSW 1008,1 73 0 0,0
30.06.2020 20:00:00 21,8 7,7 22,0 25,7 25,7 19,9 17 9 32 17 WSW 1007,9 67 8 0,0
30.06.2020 19:00:00 22,6 6,6 23,3 27,6 25,9 19,9 13 7 32 18 W 1007,9 55 14 0,0
30.06.2020 18:00:00 22,8 6,4 24,2 28,5 26,0 19,9 15 8 42 23 WSW 1008,1 53 7 0,0
30.06.2020 17:00:00 22,6 6,3 23,7 30,5 25,8 19,9 19 11 43 23 SW 1008,2 69 34 0,0
30.06.2020 16:00:00 23,3 5,8 26,9 32,7 25,1 19,9 23 12 40 22 W 1008,5 60 46 0,0
30.06.2020 15:00:00 23,0 6,2 26,8 32,6 24,3 20,0 24 13 46 25 WSW 1008,6 71 47 0,0
30.06.2020 14:00:00 21,7 6,7 24,0 31,3 23,3 20,0 23 12 45 24 WSW 1008,8 61 46 0,0
30.06.2020 13:00:00 20,5 7,0 22,7 28,9 22,5 20,0 20 11 42 23 SW 1009,2 56 34 0,0
30.06.2020 12:00:00 20,6 7,5 24,3 28,9 21,3 20,0 19 10 43 23 SW 1009,5 51 53 0,0
30.06.2020 11:00:00 19,3 6,7 22,7 26,9 20,2 20,0 22 12 42 23 WSW 1009,7 53 56 0,0
30.06.2020 10:00:00 18,6 6,7 21,2 23,6 19,4 20,1 21 12 42 23 W 1009,8 69 60 0,0
30.06.2020 09:00:00 17,9 7,0 20,2 20,2 19,0 20,1 20 11 40 22 WSW 1009,9 47 60 0,0
30.06.2020 08:00:00 16,9 8,6 17,9 17,6 18,9 20,1 16 9 30 16 SW 1009,8 53 48 0,0
30.06.2020 07:00:00 14,8 9,1 14,7 15,9 19,0 20,1 8 5 19 10 SW 1010,0 52 15 0,0
30.06.2020 06:00:00 13,9 10,9 13,6 15,1 19,3 20,1 5 3 10 5 SSW 1010,0 53 6 0,0
30.06.2020 05:00:00 13,6 10,8 13,0 15,2 19,6 20,1 4 2 7 4 W 1010,0 58 0 0,0
30.06.2020 04:00:00 13,7 11,2 11,4 15,5 20,0 20,1 3 1 8 4 WSW 1010,0 63 0 0,0
30.06.2020 03:00:00 14,0 10,9 13,3 15,5 20,4 20,1 6 3 9 5 NW 1010,2 69 0 0,0
30.06.2020 02:00:00 13,2 11,0 12,2 15,9 20,9 20,1 4 2 6 4 NNW 1010,1 60 0 0,0
30.06.2020 01:00:00 13,2 10,6 11,7 15,9 21,6 20,1 2 1 3 2 W 1010,2 75 0 0,0
30.06.2020 00:00:00 13,9 11,0 11,8 16,6 22,3 20,1 3 2 4 2 SE 1010,4 73 0 0,0
29.06.2020 23:00:00 14,8 11,3 12,9 17,8 23,1 20,1 3 2 4 2 WSW 1010,3 70 0 0,0
29.06.2020 22:00:00 17,2 11,8 14,1 19,2 23,9 20,1 3 1 10 6 W 1010,3 75 3 0,0
29.06.2020 21:00:00 19,0 11,4 17,6 20,8 24,7 20,1 8 5 23 12 NNW 1009,9 75 13 0,0
29.06.2020 20:00:00 21,0 11,8 21,7 24,2 25,2 20,2 6 3 13 7 ESE 1009,6 66 42 0,0
29.06.2020 19:00:00 21,0 11,8 22,7 25,6 25,7 20,2 6 3 11 6 SSE 1009,6 62 24 0,0
29.06.2020 18:00:00 20,8 11,9 21,5 28,2 25,9 20,2 5 3 28 15 S 1010,1 69 47 0,7
29.06.2020 17:00:00 18,6 12,3 16,7 29,1 25,7 20,2 16 9 33 18 SW 1010,8 3,2 30 0,3
29.06.2020 16:00:00 22,4 9,3 26,4 32,3 24,8 20,3 9 5 33 18 SW 1010,2 71 54 0,0

tt = temperature
td = dewpoint
tt 5cm = temperature 5cm
tt -5cm = temperature -5cm
tt -20cm = temperature -20cm
tt -100cm = temperature -100cm
ff = wind speed
fx = gusts
dd = wind direction
ppp = reduced air pressure
vv = visibility
sd = sunshine duration
rr = precipitation

Next stations